This is the latest recevied weather packets stored in our database for station/object K3BAY-1. If no packets are shown the sender has not sent any weather packets the latest 10 day(s).
| Time | Temp. | Humidity | Pressure | Rain* | Wind** | Luminosity | Snow |
|---|---|---|---|---|---|---|---|
| 1777495955 | 14.44° C | 92% | 1012.2 hPa | 0 mm | - | 51 W/m² | - |
| 1777495651 | 14.44° C | 92% | 1012.2 hPa | 0 mm | - | 62 W/m² | - |
| 1777495347 | 14.44° C | 92% | 1012.2 hPa | 0 mm | - | 52 W/m² | - |
| 1777495045 | 14.44° C | 93% | 1012.2 hPa | 0 mm | - | 64 W/m² | - |
| 1777494742 | 14.44° C | 92% | 1012.2 hPa | 0 mm | - | 48 W/m² | - |
| 1777494439 | 14.44° C | 92% | 1012.6 hPa | 0 mm | - | 73 W/m² | - |
| 1777494135 | 14.44° C | 92% | 1012.2 hPa | 0 mm | - | 81 W/m² | - |
| 1777493833 | 14.44° C | 90% | 1012.6 hPa | 1.78 mm | - | 61 W/m² | - |
| 1777493531 | 14.44° C | 90% | 1012.6 hPa | 1.78 mm | - | 61 W/m² | - |
| 1777493228 | 15° C | 89% | 1012.6 hPa | 0 mm | - | 64 W/m² | - |
| 1777492924 | 15° C | 89% | 1012.6 hPa | 0 mm | - | 69 W/m² | - |
| 1777492621 | 15° C | 88% | 1012.6 hPa | 1.78 mm | - | 57 W/m² | - |
| 1777492316 | 15° C | 85% | 1012.9 hPa | 0 mm | - | 24 W/m² | - |
| 1777492013 | 15° C | 85% | 1012.9 hPa | 0 mm | - | 24 W/m² | - |
| 1777491710 | 15.56° C | 83% | 1012.9 hPa | 0 mm | - | 31 W/m² | - |
| 1777491407 | 16.11° C | 79% | 1012.6 hPa | 0 mm | - | 32 W/m² | - |
| 1777491105 | 16.67° C | 75% | 1012.9 hPa | 0 mm | - | 66 W/m² | - |
| 1777490800 | 16.67° C | 73% | 1012.9 hPa | 0 mm | - | 102 W/m² | - |
| 1777490496 | 16.67° C | 71% | 1012.6 hPa | 0 mm | - | 127 W/m² | - |
| 1777490193 | 16.67° C | 70% | 1012.6 hPa | 0 mm | - | 134 W/m² | - |
| 1777489890 | 16.67° C | 70% | 1012.9 hPa | 0 mm | - | 139 W/m² | - |
| 1777489588 | 16.67° C | 71% | 1013.2 hPa | 0 mm | - | 117 W/m² | - |
| 1777489284 | 16.11° C | 70% | 1012.6 hPa | 0 mm | - | 98 W/m² | - |
| 1777488981 | 16.11° C | 70% | 1012.9 hPa | 0 mm | - | 78 W/m² | - |
| 1777488678 | 16.11° C | 70% | 1012.9 hPa | 0 mm | - | 78 W/m² | - |
* Rain latest hour (hover to see other rain measurements)
** Current wind speed in m/s (hover to see current wind gust speed)